Regional Weather Roundup
Issued by NWS

Home | Current Version | Previous Version | Graphics & Text | Print | Product List | Glossary On
Versions: 1 2 3 4 5 6 7 8 9 10 11 12 13 14 15 16 17 18 19 20 21 22 23 24 25 26 27 28 29 30 31 32 33 34 35 36 37 38 39 40 41 42 43 44 45 46 47 48 49 50
000
ASUS43 KLSX 240407
RWRMO

WEATHER SUMMARY FOR MISSOURI
NATIONAL WEATHER SERVICE SPRINGFIELD MO
1100 PM CDT THU MAR 23 2017

NOTE: "FAIR" INDICATES FEW OR NO CLOUDS BELOW 12,000 FEET WITH NO
       SIGNIFICANT WEATHER AND/OR OBSTRUCTIONS TO VISIBILITY.
       CURRENT SKY AND/OR WEATHER CONDITIONS ARE NOT AVAILABLE FOR
       CHILLICOTHE AND FARMINGTON.

MOZ001>031-035>038-043-044-053-054-240500-
...NORTHERN AND WESTERN MISSOURI...

CITY           SKY/WX    TMP DP  RH WIND       PRES   REMARKS
KANSAS CTY INT CLOUDY    70  46  42 S21G30    29.79S
KANSAS C DTWN  CLOUDY    72  46  39 S15       29.80R
LEE`S SUMMIT   PTCLDY    70  46  42 S16G25    29.82R
ST JOSEPH      MOCLDY    70  47  43 S18       29.77R
CHILLICOTHE      N/A     69  49  48 S9        29.83R
KIRKSVILLE     PTCLDY    52  32  46 S9        29.86R

$$
MOZ066>068-077>081-088>096-101>105-240500-
...SOUTHWEST MISSOURI...

CITY           SKY/WX    TMP DP  RH WIND       PRES   REMARKS
SPRINGFIELD    CLEAR     67  52  58 S21       29.90F
JOPLIN         CLEAR     70  49  47 S18G24    29.85S

$$
MOZ032>034-039>042-045>050-055>058-069>072-240500-
...CENTRAL MISSOURI...

CITY           SKY/WX    TMP DP  RH WIND       PRES   REMARKS
COLUMBIA       CLEAR     67  51  56 SE18G30   29.90S
JEFFERSON CITY CLEAR     70  50  49 SE16      29.91F
ROLLA          CLEAR     64  51  62 S17G28    29.95F
SEDALIA        PTCLDY    71  49  45 S23       29.87S
WHITEMAN AFB   CLEAR     68  47  46 S15       29.84R
WARRENSBURG    CLOUDY    68  43  40 S14       29.83S
OSAGE BEACH    CLEAR    N/A N/A N/A S14G23    29.92F

$$
MOZ051-052-059>065-240500-
...EAST CENTRAL MISSOURI...

CITY           SKY/WX    TMP DP  RH WIND       PRES   REMARKS
ST LOUIS INTL  CLEAR     59  44  57 S14       30.00F
SPIRIT OF STL  CLEAR     61  47  59 S8        29.98F
ST CHARLES     CLEAR     54  45  71 SE7       29.99S

$$
MOZ072>076-082>087-097>100-106>115-240500-
...SOUTH CENTRAL AND SOUTHEAST MISSOURI...

CITY           SKY/WX    TMP DP  RH WIND       PRES   REMARKS
CAPE GIRARDEAU CLEAR     55  43  63 SE10      30.07S
FARMINGTON     CLEAR     60  47  61 S14G20    30.03F
POPLAR BLUFF   CLEAR     62  51  67 SE10      30.06S
WEST PLAINS    CLEAR     63  51  65 SE7       30.05R

$$



USA.gov is the U.S. government's official web portal to all federal, state and local government web resources and services.